[[{"header":{"parameterUnit":"m.s-1","parameterCategory":1,"la1":30.2991,"la2":30.254,"lo1":-89.0895,"lo2":-89.0444,"dy":0.0017,"dx":0.0017,"nx":28,"ny":28,"refTime":"2023-09-15T21:00:00:Z","depth":0,"parameterNumber":2,"parameterNumberName":"U-component_of_WINDS"},"data":[0,0,0,0,0,0,0,0,0,0,0,0,0,0,0,0,0,0,0,0,0,0,0,0,0,0,0,0,0,0,0,0,0,0,0,0,0,0,0,0,0,0,0,0,0,0,0,0,0,0,0,0,0,0,0,0,0,0,2.307,2.3071,0,2.3127,2.3127,2.3128,2.3088,2.3087,2.3085,2.3083,2.3139,2.3142,2.3145,0,0,0,0,0,0,0,0,0,0,0,0,0,2.2924,2.2927,2.307,2.3071,2.3071,2.3127,2.3127,2.3128,2.3089,2.3087,2.3084,2.3082,2.3138,2.3142,2.3145,0,0,0,0,0,0,0,0,0,0,0,0,0,2.2985,2.2928,2.307,2.3058,2.3058,2.3127,2.3128,2.3128,2.3089,2.3086,2.3084,2.3081,2.3137,2.3141,2.3146,2.3228,0,0,2.316,2.3162,0,0,0,0,0,0,0,0,2.2981,2.299,2.3059,2.3059,2.3059,2.3098,2.3096,2.3162,2.309,2.3077,2.3083,2.308,2.3127,2.3133,2.3149,2.3231,2.3233,2.3161,2.3163,2.3166,2.3167,0,0,0,0,0,0,0,2.2977,2.2987,2.3092,2.306,2.306,2.3049,2.3055,2.3109,2.3116,2.3078,2.3075,2.3083,2.3127,2.3145,2.315,2.3234,2.3161,2.3165,2.3168,2.3169,2.3384,2.3387,0,0,0,0,0,0,2.2974,2.2984,2.3091,2.3094,2.3013,2.3054,2.306,2.3088,2.3116,2.3117,2.3085,2.3081,2.3138,2.3145,2.3152,2.3248,2.3165,2.317,2.3173,2.3381,2.3385,2.3388,0,0,0,0,0,0,2.2971,2.2984,2.3088,2.3038,2.3051,2.3059,2.3091,2.309,2.3108,2.3121,2.3122,2.3102,2.3136,2.3145,2.3209,2.325,2.3172,2.3176,2.3378,2.3382,2.3386,2.3444,0,0,0,0,0,0,2.2967,2.2983,2.3016,2.3039,2.3054,2.3146,2.3093,2.3094,2.3117,2.3112,2.3137,2.3139,2.3135,2.3202,2.3214,2.3255,2.318,2.3374,2.338,2.3385,2.3438,2.3449,2.3459,0,0,0,0,0,2.2962,2.3029,2.3017,2.303,2.3094,2.3148,2.3156,2.3151,2.312,2.3152,2.316,2.3138,2.3244,2.3209,2.3222,2.3265,2.3372,2.3378,2.3385,2.3433,2.3447,2.3459,0,0,0,0,0,0,2.3009,2.3032,2.3019,2.3096,2.3121,2.3142,2.3181,2.3166,2.3199,2.3193,2.3183,2.3189,2.3256,2.3267,2.3228,2.3345,2.3303,2.3312,2.3336,2.3349,2.3359,2.3354,2.3184,0,0,0,0,0,2.3029,2.3072,2.3089,2.3155,2.3168,2.3173,2.3196,2.319,2.3215,2.3224,2.3237,2.3261,2.3299,2.3325,2.3361,2.344,2.3444,2.3476,2.3486,2.3494,2.3502,2.3543,2.3557,2.3409,2.3409,2.3409,0,0,2.3069,2.3087,2.3115,2.3165,2.3183,2.3227,2.3182,2.323,2.3262,2.3231,2.3292,2.3303,2.3328,2.34,2.3432,2.3411,2.3544,2.3503,2.3509,2.3513,2.3551,2.3565,2.3577,2.3414,2.3413,2.3412,0,0,2.3165,2.3183,2.324,2.3259,2.3287,2.329,2.3303,2.3327,2.3332,2.3394,2.3371,2.3408,2.3475,2.3494,2.3512,2.3614,2.3595,2.3626,2.3681,2.372,2.3732,2.3742,2.3777,2.3789,2.3634,2.3635,2.3635,0,2.3211,2.3277,2.3271,2.332,2.3342,2.3318,2.3374,2.3392,2.3431,2.3446,2.3422,2.3505,2.3521,2.3595,2.362,2.3637,2.365,2.3623,2.3731,2.3741,2.375,2.3783,2.3796,2.3638,2.3638,2.3637,2.3637,0,2.3331,2.3377,2.3419,2.3457,2.3484,2.3537,2.3538,2.3566,2.3557,2.3561,2.3623,2.3641,2.368,2.3697,2.3689,2.377,2.3756,2.3732,2.3689,2.3768,2.3799,2.3811,2.3643,2.3642,2.3641,2.364,0,0,2.3458,2.3492,2.3507,2.3523,2.3553,2.3587,2.3638,2.3677,2.37,2.3727,2.3768,2.3825,2.3802,2.3823,2.3817,2.3852,2.3929,2.3823,2.3823,2.3841,2.4018,2.4035,2.405,2.3917,2.3919,2.3921,2.4015,0,2.3554,2.3644,2.3639,2.3723,2.3764,2.374,2.3784,2.3806,2.3812,2.3847,2.3852,2.3892,2.386,2.3872,2.3906,2.3913,2.3964,2.3906,2.3954,2.3955,2.3946,2.4066,2.4084,2.4172,2.4027,2.4029,2.4031,0,2.3678,2.371,2.3797,2.3819,2.3836,2.3876,2.391,2.3944,2.3968,2.3969,2.3992,2.398,2.4029,2.3986,2.4054,2.4014,2.4033,2.4039,2.4043,2.4046,2.3997,2.407,2.42,2.4212,2.405,2.4048,2.4047,0,2.376,2.3824,2.3884,2.3899,2.3927,2.3955,2.3967,2.3988,2.4011,2.4041,2.4055,2.409,2.4109,2.4135,2.4132,2.4101,2.42,2.4157,2.4201,2.4201,2.4222,2.422,2.4355,2.4237,2.4237,2.4237,2.4236,0,2.3866,2.392,2.3921,2.3958,2.4018,2.4011,2.407,2.4079,2.4098,2.4135,2.4117,2.4152,2.4147,2.4181,2.4179,2.4234,2.4243,2.4244,2.4243,2.4245,2.4245,2.4257,2.425,2.424,2.4239,2.4239,2.4238,0,2.3967,2.397,2.4034,2.4055,2.4061,2.4104,2.412,2.4154,2.4158,2.4206,2.4216,2.4222,2.4262,2.4261,2.4307,2.4305,2.4372,2.4365,2.4364,2.4362,2.4406,2.4401,2.4551,2.4569,2.4441,2.4443,2.4444,0,2.4035,2.4076,2.41,2.4124,2.4139,2.4178,2.4201,2.4196,2.4221,2.425,2.428,2.4319,2.4349,2.4413,2.442,2.4455,2.4446,2.4497,2.4451,2.4452,2.4445,2.4442,2.4445,2.4505,2.4506,2.4508,2.4509,0,2.4153,2.4152,2.4187,2.4222,2.425,2.4278,2.4303,2.4323,2.4321,2.4349,2.439,2.4413,2.4459,2.4497,2.4529,2.4541,2.4524,2.4523,2.4535,2.4537,2.4534,2.4534,2.4387,2.4519,2.4518,2.4517,2.4517,2.4516,2.4238,2.4273,2.4296,2.4334,2.4353,2.4376,2.4409,2.4417,2.4451,2.4488,2.4483,2.4528,2.4549,2.4591,2.4605,2.4639,2.4621,2.4639,2.4643,2.4647,2.4651,2.453,2.4645,2.4645,2.4645,2.4645,2.4644,0,2.4355,2.4368,2.4404,2.4439,2.4469,2.4452,2.4478,2.4504,2.4544,2.4565,2.4595,2.4641,2.4677,2.4687,2.4721,2.4747,2.474,2.4756,2.4753,2.4755,2.4666,2.4652,2.4761,2.4761,2.476,2.476,2.476,2.476,2.4419,2.4476,2.4478,2.4543,2.4556,2.46,2.4616,2.4637,2.4654,2.4706,2.4736,2.4743,2.4759,2.4794,2.4826,2.4827,2.484,2.4859,2.4857,2.4774,2.4762,2.4751,2.4737,2.4862,2.4862,2.4944,2.4944,2.4945]},{"header":{"parameterUnit":"m.s-1","parameterCategory":1,"la1":30.2991,"la2":30.254,"lo1":-89.0895,"lo2":-89.0444,"dy":0.0017,"dx":0.0017,"nx":28,"ny":28,"refTime":"2023-09-15T21:00:00:Z","depth":0,"parameterNumber":3,"parameterNumberName":"V-component_of_WINDS"},"data":[0,0,0,0,0,0,0,0,0,0,0,0,0,0,0,0,0,0,0,0,0,0,0,0,0,0,0,0,0,0,0,0,0,0,0,0,0,0,0,0,0,0,0,0,0,0,0,0,0,0,0,0,0,0,0,0,0,0,-0.0244,-0.0242,0,-0.0113,-0.0112,-0.011,-0.0063,-0.0063,-0.0064,-0.0064,0.0076,0.008,0.0085,0,0,0,0,0,0,0,0,0,0,0,0,0,-0.0446,-0.0442,-0.0244,-0.0242,-0.0241,-0.0113,-0.0112,-0.011,-0.0063,-0.0063,-0.0064,-0.0064,0.0075,0.008,0.0085,0,0,0,0,0,0,0,0,0,0,0,0,0,-0.0341,-0.0441,-0.0244,-0.0202,-0.0197,-0.0114,-0.0112,-0.0109,-0.0063,-0.0063,-0.0064,-0.0065,0.0073,0.0079,0.0086,0.0138,0,0,0.0105,0.0108,0,0,0,0,0,0,0,0,-0.0347,-0.0333,-0.021,-0.0205,-0.0199,-0.0105,-0.0131,-0.0026,-0.0062,-0.0113,-0.0064,-0.0065,0.0017,0.0028,0.0054,0.0145,0.0151,0.0105,0.0109,0.0112,0.0114,0,0,0,0,0,0,0,-0.0354,-0.0339,-0.0192,-0.0208,-0.0201,-0.0187,-0.0173,-0.0111,-0.0045,-0.0109,-0.0105,-0.0091,0.002,0.0048,0.0058,0.0153,0.0105,0.0111,0.0115,0.0117,0.0294,0.0295,0,0,0,0,0,0,-0.0369,-0.0345,-0.0196,-0.0188,-0.0276,-0.0183,-0.0167,-0.0134,-0.0046,-0.0034,-0.009,-0.0089,0.0038,0.005,0.0063,0.0131,0.0112,0.0118,0.0121,0.0293,0.0295,0.0296,0,0,0,0,0,0,-0.0374,-0.0357,-0.0201,-0.0265,-0.0245,-0.0179,-0.0142,-0.0131,-0.0103,-0.0032,-0.002,-0.0074,0.0038,0.0054,0.0119,0.0136,0.0121,0.0126,0.0292,0.0294,0.0295,0.0267,0,0,0,0,0,0,-0.038,-0.0359,-0.0339,-0.0266,-0.0242,-0.015,-0.0141,-0.0128,-0.0094,-0.0091,-0.0014,-0.0001,0.0038,0.0109,0.0125,0.0145,0.0131,0.0291,0.0293,0.0295,0.0266,0.0267,0.0267,0,0,0,0,0,-0.0387,-0.0351,-0.0339,-0.0321,-0.0217,-0.0149,-0.0135,-0.0092,-0.0092,-0.0071,-0.0026,-0.0004,0.0131,0.0115,0.0134,0.0156,0.029,0.0292,0.0295,0.0266,0.0267,0.0267,0,0,0,0,0,0,-0.0422,-0.0341,-0.0326,-0.0265,-0.0215,-0.0141,-0.0113,-0.0092,-0.0038,-0.0038,0.0016,0.0033,0.0093,0.0131,0.0112,0.0212,0.0213,0.0218,0.0185,0.0186,0.0186,0.0177,0.0136,0,0,0,0,0,-0.0423,-0.0377,-0.0307,-0.026,-0.0236,-0.0179,-0.0148,-0.012,-0.0064,-0.0041,0.0009,0.0064,0.0119,0.0155,0.0209,0.0272,0.029,0.0296,0.0296,0.0296,0.0301,0.0338,0.0342,0.0303,0.0303,0.0303,0,0,-0.0424,-0.0374,-0.0347,-0.0266,-0.0224,-0.0175,-0.0161,-0.011,-0.0073,-0.0033,0.0031,0.007,0.0135,0.0199,0.0229,0.0232,0.0316,0.0299,0.0299,0.0304,0.0341,0.0344,0.0347,0.0304,0.0304,0.0304,0,0,-0.04,-0.0358,-0.0315,-0.0273,-0.0209,-0.0172,-0.0161,-0.0091,-0.0064,-0.0,0.0031,0.0077,0.0171,0.0216,0.0251,0.0291,0.0313,0.0307,0.0311,0.0346,0.0349,0.0352,0.0367,0.0371,0.0312,0.0311,0.0311,0,-0.0408,-0.0336,-0.0294,-0.0245,-0.021,-0.0174,-0.0128,-0.0088,-0.0009,0.0015,0.0016,0.0134,0.018,0.0255,0.0265,0.0292,0.0307,0.0299,0.0344,0.0348,0.0351,0.0366,0.0372,0.031,0.0311,0.0311,0.0311,0,-0.0349,-0.0299,-0.0271,-0.0198,-0.016,-0.0113,-0.0061,-0.0027,-0.0002,0.0036,0.0101,0.0158,0.0225,0.0244,0.027,0.0324,0.0323,0.0333,0.0336,0.0353,0.0368,0.0374,0.0309,0.0309,0.031,0.031,0,0,-0.0342,-0.0248,-0.0238,-0.0205,-0.0133,-0.0092,-0.0043,0.002,0.0049,0.0102,0.0146,0.0224,0.0234,0.0273,0.0305,0.0335,0.0364,0.0342,0.0345,0.0345,0.0428,0.042,0.0426,0.0379,0.038,0.0381,0.0422,0,-0.0309,-0.0221,-0.0182,-0.0111,-0.0064,-0.003,0.0014,0.0064,0.01,0.0148,0.0189,0.0243,0.0252,0.0276,0.0308,0.0354,0.0382,0.0351,0.0422,0.0424,0.0406,0.0434,0.0426,0.0462,0.0428,0.0429,0.043,0,-0.0257,-0.0207,-0.0132,-0.0066,-0.0044,-0.0007,0.0054,0.0098,0.0156,0.0181,0.0225,0.0254,0.031,0.0307,0.0385,0.0363,0.0394,0.0421,0.0424,0.0433,0.0429,0.0445,0.0475,0.048,0.044,0.0439,0.0438,0,-0.0259,-0.0172,-0.0116,-0.0089,-0.001,0.0016,0.0051,0.0108,0.0143,0.0197,0.0221,0.0281,0.0314,0.0361,0.0407,0.0401,0.0481,0.0482,0.0505,0.0504,0.0521,0.052,0.0557,0.0539,0.0539,0.0539,0.0539,0,-0.0225,-0.0181,-0.0116,-0.0082,-0.003,0.0015,0.0066,0.0103,0.0153,0.0197,0.0232,0.0273,0.033,0.0379,0.0415,0.0475,0.049,0.0512,0.0522,0.051,0.0507,0.0532,0.0531,0.0541,0.054,0.054,0.054,0,-0.0218,-0.0174,-0.011,-0.0042,-0.0023,0.0012,0.0072,0.0108,0.0145,0.02,0.0216,0.0276,0.0335,0.0385,0.0464,0.0488,0.055,0.0561,0.053,0.0535,0.0555,0.0553,0.0611,0.0622,0.0595,0.0596,0.0596,0,-0.0199,-0.0164,-0.0093,-0.0062,-0.0029,0.002,0.0056,0.0102,0.0139,0.0207,0.0235,0.0296,0.0347,0.0441,0.0493,0.0553,0.0566,0.0582,0.0576,0.0563,0.0568,0.0565,0.057,0.0583,0.0583,0.0583,0.0583,0,-0.0169,-0.0149,-0.0101,-0.0044,-0.0003,0.0044,0.0093,0.0117,0.0172,0.0211,0.0271,0.031,0.0389,0.045,0.0516,0.0554,0.0579,0.0585,0.0593,0.0582,0.0563,0.0574,0.0532,0.0583,0.0583,0.0583,0.0583,0.0583,-0.0155,-0.0122,-0.0067,-0.0014,0.0027,0.0071,0.0108,0.015,0.0199,0.0266,0.0291,0.0352,0.041,0.05,0.0538,0.0589,0.0592,0.0604,0.0608,0.061,0.0609,0.0554,0.0601,0.0601,0.0601,0.0601,0.0601,0,-0.0123,-0.0086,-0.0038,0.0028,0.007,0.0087,0.0141,0.0176,0.0229,0.028,0.0329,0.0398,0.0457,0.0513,0.0575,0.0605,0.0618,0.062,0.0619,0.0627,0.0602,0.0588,0.0608,0.0608,0.0608,0.0608,0.0608,0.0608,-0.0101,-0.0045,-0.0019,0.0059,0.0096,0.0154,0.0184,0.0226,0.0267,0.0341,0.039,0.0425,0.0479,0.0545,0.06,0.0615,0.0637,0.0636,0.0655,0.063,0.0629,0.0628,0.0615,0.0641,0.0641,0.0676,0.0677,0.0677]}]]